STARLINK-32551, 62166

Orbit data source: Space-Track

STARLINK-32551, 62166 is a payload satellite owned by SpaceX/Seattle (US) in LEO that was launched on Sat, 30 Nov 2024 UTC via an FALCON 9 launch vehicle from the Air Force Western Test Range (AFWTR). Payload-class satellites include a variety of spacecraft equipped with specific instruments for various scientific and technological missions. These include communications satellites like Starlink; space stations such as the ISS; scientific satellites like the Hubble; Earth observation satellites from companies like Planet Labs, Umbra, and HawkEye 360; GPS; miniature CubeSats for education and research; and military/defense satellites.

Loading next visibility...
Identifier
62166, 2024-225D
Orbit
LEO
Country
Flag of USUS
Related business
Manufacturer
SpaceX/Seattle
Mission
Operational Commercial Communications
Bus & Motor
STARLINK V2M, Unknown motor
Mass
730 kg wet, ~700 kg dry
Launch date (UTC)
2024-11-30 (1 year ago)
Launch vehicle
FALCON 9
Launch site
Air Force Western Test Range (AFWTR)
Object type
Payload
Rocket body
Debris
Shape & HBR
Box + 2 Pan, 17.7 m
Radar Cross Section
33.884 m², Large (>1 m²)

Expand to show TLE details & history
Last TLE update: 12 hours ago

TLE from 12 hours ago
0 STARLINK-32551
1 62166U 24225D   26062.75002315  .00048653  00000-0  40591-2 0  9992
2 62166  70.0021 179.3656 0003385 273.3636 209.9774 14.98309844  5743
Epoch: 2026-03-03T18:00Z
TLE epoch observation values (Epoch: 2026-03-03T18:00:02.000Z)
Latitude
51.85772°
Longitude
-99.61269°
Altitude
581.952 km
Speed
7.574 km/s
True Right ascension
22h 07m 40s
True Declination
51° 41' 11"
Sunlit
Object was in daylight at epoch
Visualization orbit readout
Latitude
Unknown
Longitude
Unknown
Altitude
Unknown
Speed
Unknown
Apparent Right ascension
Unknown
Apparent Declination
Unknown
Sunlit
N/A
Visualization observer readout
Local Sidereal Time
10:01:07
Azimuth
Unknown
Elevation
Unknown
Doppler factor
Unknown
Orbital elements
Apogee altitude
572.418 km
Perigee altitude
567.714 km
Semi-major axis
6,948.203 km
Eccentricity
0.00034
Inclination
70.0021°
RAAN
179.3656°
Arg. of periapsis
273.3636°
True anomaly
209.95803°
Mean anomaly
209.9774°
Eccentric anomaly
209.96771°
Mean motion
3.74744 °/min
Orbital period
96.07 mins
BSTAR
0.0040591
Loading maneuver chart data...
Computing Atmospheric mass density...
Loading historical data...
Loading historical data...
Loading historical data...
Loading historical data...
Loading historical data...
Loading historical data...
Loading historical data...

Documentation

Showing up to 5 results
|